This demonstration page uses our WeatherBlox Daily Observations layout. Learn more.

Left ArrowRight Arrow

Hourly Observations for March 11, 2021

Temp ( °F °C ) Dew Point ( °F °C ) Humidity (%) Winds ( mph kmh ) Pressure ( in mb ) Visibility ( mi km ) Precip ( " mm )
12:15 am 00:15 Clear 33 0.3 28 -2.5 82 82 NNW 9 15 30.07 1018 10 16 N/A
12:35 am 00:35 Clear 32 0.1 28 -2.5 83 83 NNW 8 13 30.08 1019 10 16 N/A
12:55 am 00:55 Clear 32 undefined 27 -2.6 83 83 NNW 9 15 30.08 1019 10 16 N/A
1:15 am 01:15 Clear 32 -0.1 27 -2.6 83 83 NNW 8 13 30.10 1019 10 16 N/A
1:35 am 01:35 Clear 32 -0.2 27 -2.6 84 84 NW 5 7 30.12 1020 10 16 N/A
1:55 am 01:55 Clear 30 -1 27 -3 86 86 WNW 3 6 30.12 1020 10 16 N/A
2:15 am 02:15 Clear 29 -1.5 26 -3.3 88 88 W 5 7 30.15 1021 10 16 N/A
2:35 am 02:35 Clear 30 -1.1 26 -3.1 86 86 WNW 5 7 30.15 1021 10 16 N/A
2:55 am 02:55 Clear 30 -1 26 -3.1 86 86 W 3 6 30.16 1021 10 16 N/A
3:15 am 03:15 Clear 30 -1 27 -3 86 86 N N/A 30.16 1021 10 16 N/A
3:35 am 03:35 Clear 31 -0.4 27 -2.9 83 83 S 6 9 30.18 1022 10 16 N/A
3:55 am 03:55 Clear 29 -1.5 26 -3.5 86 86 SW 3 6 30.19 1022 10 16 N/A
4:15 am 04:15 Clear 29 -1.7 26 -3.5 88 88 WSW 3 6 30.19 1022 10 16 N/A
4:35 am 04:35 Clear 30 -1.2 26 -3.1 87 87 W 6 9 30.20 1023 10 16 N/A
4:55 am 04:55 Clear 29 -1.6 25 -3.7 86 86 W 7 11 30.20 1023 10 16 N/A
5:15 am 05:15 Clear 29 -1.4 25 -3.8 84 84 WNW 6 9 30.20 1023 10 16 N/A
5:35 am 05:35 Clear 29 -1.9 25 -3.7 88 88 WNW 5 7 30.21 1023 10 16 N/A
5:55 am 05:55 Clear 27 -2.8 24 -4.6 88 88 W 6 9 30.23 1024 10 16 N/A
6:15 am 06:15 Clear 27 -2.6 24 -4.4 88 88 WNW 6 9 30.24 1024 10 16 N/A
6:35 am 06:35 Clear 27 -2.7 24 -4.5 88 88 WNW 6 9 30.24 1024 10 16 N/A
6:55 am 06:55 Sunny 26 -3.5 23 -5 89 89 WNW 5 7 30.25 1024 10 16 N/A
7:15 am 07:15 Sunny 26 -3.6 23 -5 90 90 WNW 6 9 30.27 1025 10 16 N/A
7:35 am 07:35 Sunny 27 -2.8 24 -4.5 88 88 WNW 6 9 30.26 1025 10 16 N/A
7:55 am 07:55 Sunny 28 -2 26 -3.6 89 89 WNW 6 9 30.26 1025 10 16 N/A
8:15 am 08:15 Sunny 30 -1 27 -3 86 86 WNW 6 9 30.27 1025 10 16 N/A
8:35 am 08:35 Sunny 33 0.5 29 -1.4 87 87 NW 6 9 30.26 1025 10 16 N/A
8:55 am 08:55 Sunny 36 2.1 30 -1.1 80 80 NNW 9 15 30.25 1024 10 16 N/A
9:15 am 09:15 Sunny 38 3.2 30 -0.9 75 75 NNW 10 17 30.25 1024 10 16 N/A
9:35 am 09:35 Sunny 40 4.3 31 -0.7 70 70 NNW 10 17 30.24 1024 10 16 N/A
9:55 am 09:55 Sunny 41 5.1 30 -1.2 64 64 N 12 19 30.24 1024 10 16 N/A
10:15 am 10:15 Sunny 42 5.5 29 -1.5 61 61 N 10 17 30.24 1024 10 16 N/A
10:35 am 10:35 Sunny 43 6.2 29 -1.7 57 57 N 9 15 30.24 1024 10 16 N/A
10:55 am 10:55 Sunny 45 7.1 29 -1.9 53 53 NNW 8 13 30.23 1024 10 16 N/A
11:15 am 11:15 Sunny 46 7.6 28 -2.5 49 49 NNW 7 11 30.22 1024 10 16 N/A
11:35 am 11:35 Sunny 47 8.2 27 -2.7 46 46 N 7 11 30.22 1023 10 16 N/A
11:55 am 11:55 Sunny 47 8.3 25 -3.8 43 43 N 6 9 30.22 1023 10 16 N/A
12:35 pm 12:35 Sunny 49 9.6 25 -3.9 39 39 N 7 11 30.21 1023 10 16 N/A
12:55 pm 12:55 Sunny 49 9.7 25 -4.1 38 38 N 8 13 30.20 1023 10 16 N/A
1:15 pm 13:15 Sunny 50 10.2 23 -5 34 34 NE 7 11 30.18 1022 10 16 N/A
1:35 pm 13:35 Sunny 51 10.4 22 -5.5 33 33 NNE 6 9 30.17 1022 10 16 N/A
1:55 pm 13:55 Sunny 51 10.8 23 -4.9 33 33 NE 9 15 30.16 1021 10 16 N/A
2:15 pm 14:15 Sunny 51 10.8 22 -5.6 31 31 ENE 5 7 30.16 1021 10 16 N/A
2:35 pm 14:35 Sunny 52 11.1 20 -6.6 29 29 ENE 6 9 30.15 1021 10 16 N/A
2:55 pm 14:55 Sunny 53 11.9 21 -6 28 28 E 6 9 30.14 1021 10 16 N/A
3:15 pm 15:15 Sunny 54 12.3 20 -6.6 26 26 ENE 7 11 30.13 1020 10 16 N/A
3:35 pm 15:35 Sunny 53 11.7 19 -7.3 26 26 N N/A 30.14 1021 10 16 N/A
3:55 pm 15:55 Sunny 54 12.1 20 -6.4 27 27 E 5 7 30.13 1020 10 16 N/A
4:15 pm 16:15 Sunny 54 12 20 -6.7 27 27 E 6 9 30.14 1020 10 16 N/A
4:35 pm 16:35 Sunny 54 12 20 -6.6 27 27 E 8 13 30.14 1020 10 16 N/A
4:55 pm 16:55 Sunny 54 12 20 -6.6 27 27 E 7 11 30.14 1020 10 16 N/A
5:15 pm 17:15 Sunny 53 11.7 20 -6.6 27 27 E 6 9 30.14 1021 10 16 N/A
5:35 pm 17:35 Sunny 53 11.5 21 -6.3 28 28 E 6 9 30.14 1021 10 16 N/A
5:55 pm 17:55 Sunny 52 11.1 20 -6.8 28 28 E 6 9 30.14 1021 10 16 N/A
6:15 pm 18:15 Sunny 50 10.1 21 -6 32 32 ENE 8 13 30.16 1021 10 16 N/A
6:35 pm 18:35 Sunny 46 7.9 22 -5.8 38 38 ENE 8 13 30.19 1022 10 16 N/A
6:55 pm 18:55 Clear 43 6.2 21 -5.9 42 42 ENE 8 13 30.22 1023 10 16 N/A
7:15 pm 19:15 Clear 42 5.8 22 -5.8 43 43 E 9 15 30.24 1024 10 16 N/A
7:35 pm 19:35 Clear 42 5.3 22 -5.6 46 46 E 9 15 30.25 1024 10 16 N/A
7:55 pm 19:55 Clear 42 5.6 22 -5.4 45 45 E 8 13 30.26 1025 10 16 N/A
8:15 pm 20:15 Clear 38 3.4 22 -5.6 52 52 ENE 9 15 30.28 1026 10 16 N/A
8:35 pm 20:35 Clear 38 3.2 22 -5.3 54 54 E 9 15 30.30 1026 10 16 N/A
8:55 pm 20:55 Clear 39 3.7 23 -5.1 53 53 E 9 15 30.30 1026 10 16 N/A
9:15 pm 21:15 Clear 40 4.6 23 -5 50 50 E 10 17 30.30 1026 10 16 N/A
9:35 pm 21:35 Clear 39 3.8 23 -5 53 53 E 10 17 30.32 1027 10 16 N/A
9:55 pm 21:55 Clear 38 3.5 23 -4.9 55 55 E 9 15 30.33 1027 10 16 N/A
10:15 pm 22:15 Clear 39 3.9 24 -4.4 55 55 E 8 13 30.33 1027 10 16 N/A
10:35 pm 22:35 Clear 40 4.5 25 -4 54 54 E 12 19 30.33 1027 10 16 N/A
10:55 pm 22:55 Clear 39 4 25 -4.1 56 56 E 9 15 30.35 1028 10 16 N/A
11:15 pm 23:15 Clear 39 3.7 25 -3.9 58 58 E 9 15 30.35 1028 10 16 N/A
11:35 pm 23:35 Clear 38 3.1 25 -4 60 60 E 10 17 30.36 1028 10 16 N/A
11:55 pm 23:55 Clear 38 3.2 25 -3.8 60 60 E 12 19 30.36 1028 10 16 N/A

Powered by AerisWeather